[Iaude] MPEC D61: 2024 DN [a=1.23,e=0.22,i=5.0,H=25.3]
    mpec at cfa.harvard.edu 
    mpec at cfa.harvard.edu
       
    Mon Feb 19 02:57:42 EST 2024
    
    
  
M.P.E.C. 2024-D61                             Issued 2024 February 19, 07:56 UT
     The Minor Planet Electronic Circulars contain information on unusual
         minor planets, routine data on comets and natural satellites,
         and occasional editorial announcements.  They are published
    on behalf of Division F of the International Astronomical Union by the
          Minor Planet Center, Smithsonian Astrophysical Observatory,
                          Cambridge, MA 02138, U.S.A.
			  
             Prepared using the Tamkin Foundation Computer Network
                              MPC at CFA.HARVARD.EDU
            URL https://www.minorplanetcenter.net/    ISSN 1523-6714
                                    2024 DN                                     
Observations:
     K24D00N* C2024 02 17.55299411 55 44.429+31 35 35.69         22.09wXED061F52
     K24D00N  C2024 02 17.56416811 55 42.702+31 35 45.95         22.37wXED061F52
     K24D00N  C2024 02 17.57526211 55 41.008+31 35 55.42         22.78wXED061F52
     K24D00N KC2024 02 18.37671711 54 06.588+31 47 47.65         22.04GVED061V06
     K24D00N KC2024 02 18.38309711 54 05.634+31 47 53.34         21.94GVED061V06
     K24D00N KC2024 02 18.38947711 54 04.684+31 47 59.03         21.90GVED061V06
     K24D00N KC2024 02 18.39585511 54 03.773+31 48 03.67         21.81GVED061V06
     K24D00N KC2024 02 19.30279111 52 15.21 +32 00 28.4          22.2 GVED061H21
     K24D00N KC2024 02 19.30568211 52 14.81 +32 00 31.0          22.1 GVED061H21
     K24D00N KC2024 02 19.30866911 52 14.37 +32 00 33.2          22.2 GVED061H21
Observer details:
F52 Pan-STARRS 2, Haleakala.  Observers J. Herman, T. Lowe, P. Minguez, A.
    Schultz, I. Smith.  Measurers K. Chambers, T. de Boer, J. Fairlamb, H.
    Gao, M. Huber, C.-C. Lin, E. Magnier, Y. Ramanjooloo, R. Wainscoat, R.
    Weryk.  1.8-m Ritchey-Chretien + CCD.
H21 Astronomical Research Observatory, Westfield.  Observer R. Holmes.
    Measurers T. Linder, R. Holmes, L. Horn.  1.3-m f/4.0 astrograph + CCD.
V06 Catalina Sky Survey-Kuiper.  Observer J. B. Fazekas.  Measurers T. Beuden,
    V. F. Carvajal, D. Fay, J. B. Fazekas, D. C. Fuls, A. R. Gibbs, A. D.
    Grauer, H. Groeller, J. K. Hogan, R. A. Kowalski, S. M. Larson, G. J.
    Leonard, D. Rankin, R. L. Seaman, F. C. Shelly, K. W. Wierzchos.  1.55-m
    reflector + 1K CCD.
Orbital elements:
2024 DN                                                  Earth MOID = 0.0043 AU
Epoch 2024 Mar. 31.0 TT = JDT 2460400.5                 MPC                     
M  78.85495              (2000.0)            P               Q                  
n   0.71989070     Peri.  326.40189     +0.19023750     -0.97839298             
a   1.2329865      Node   112.51661     +0.91892161     +0.14842849             
e   0.2217989      Incl.    5.02881     +0.34553259     +0.14393109             
P   1.37           H   25.39          G   0.15           U   9                  
Residuals in seconds of arc
240217 F52  0.1+  0.3-    240218 V06  0.1-  0.3+    240219 H21  0.1+  0.1+
240217 F52  0.2-  0.0     240218 V06  0.0   0.3+    240219 H21  0.1+  0.1-
240217 F52  0.2-  0.2-    240218 V06  0.6+  0.6-
240218 V06  0.1-  0.2+    240219 H21  0.2-  0.1-
Ephemeris:
2024 DN                  a,e,i = 1.23, 0.22, 5                   q = 0.9595
Date    TT    R. A. (2000) Decl.     Delta      r    Elong.  Phase     V
2024 01 20    12 40 31.6 +11 17 57   0.05919 1.0090   113.5    63.4    21.5
...
2024 02 04    12 21 09.3 +25 37 35   0.08948 1.0499   134.1    42.4    21.9
...
2024 02 12    12 06 46.9 +29 45 13   0.1081  1.0748   142.5    34.0    22.1
...
2024 02 18    11 54 51.6 +31 42 14   0.1237  1.0945   147.5    29.0    22.3
2024 02 19    11 52 51.1 +31 56 33   0.1264  1.0978   148.2    28.3    22.4
2024 02 20    11 50 50.9 +32 09 30   0.1293  1.1012   148.8    27.7    22.4
...
2024 02 26    11 39 08.1 +32 59 59   0.1473  1.1217   151.7    24.8    22.6
...
2024 03 05    11 25 12.4 +33 04 38   0.1746  1.1496   152.5    23.5    23.0
...
2024 03 20    11 08 13.3 +30 53 16   0.2377  1.2023   147.1    26.8    23.9
A. U. Tomatic                (C) Copyright 2024 MPC           M.P.E.C. 2024-D61
    
    
More information about the Iaude
mailing list